Regional Weather Roundup
Issued by NWS

Home | Current Version | Previous Version | Graphics & Text | Print | Product List | Glossary Off
Versions: 1 2 3 4 5 6 7 8 9 10 11 12 13 14 15 16 17 18 19 20 21 22 23 24 25 26 27 28 29 30 31 32 33 34 35 36 37 38 39 40 41 42 43 44 45 46 47 48 49 50

000
ASUS43 KMKX 262359
RWRWI

WISCONSIN REGIONAL WEATHER ROUNDUP
NATIONAL WEATHER SERVICE MILWAUKEE/SULLIVAN WI
600 PM CST THU FEB 26 2015

NOTE: "FAIR" INDICATES FEW OR NO CLOUDS BELOW 12,000 FEET WITH NO
SIGNIFICANT WEATHER AND/OR OBSTRUCTIONS TO VISIBILITY.

WIZ001-002-006>008-014>016-023>028-270100-
NORTHWEST WISCONSIN

CITY           SKY/WX    TMP DP  RH WIND       PRES   REMARKS
SUPERIOR ARPT  CLEAR      8  -9  46 NW10      30.41S WCI  -6
ASHLAND        CLEAR      5 -10  50 W7        30.38S WCI  -7
6HR MIN TEMP:   5; 6HR MAX TEMP:  10;

HAYWARD        CLEAR      6 -12  43 NW3       30.35R
6HR MIN TEMP:   4; 6HR MAX TEMP:  10;

SIREN          CLEAR      8  -9  46 NW8       30.40S WCI  -5
CUMBERLAND     CLEAR      5  -9  51 NW9       30.36S WCI  -9
RICE LAKE      CLEAR      8  -9  46 W6        30.38S WCI  -3
CHETEK         CLEAR      7  -9  48 W5        30.38R WCI  -2
LADYSMITH      CLEAR      9  -9  43 NW7       30.35R WCI  -3
EAU CLAIRE     NOT AVBL
MENOMONIE      CLEAR      8  -8  46 NW7       30.41R WCI  -3
NEW RICHMOND   CLEAR      6  -8  51 NW12      30.41S WCI  -9
OSCEOLA        CLEAR      8  -8  48 NW9       30.45S WCI  -6
$$

WIZ003>005-009-010-017-018-270100-
NORTH CENTRAL WISCONSIN

CITY           SKY/WX    TMP DP  RH WIND       PRES   REMARKS
MANITOWISH WTR FAIR       2 -10  58 NW6       30.26R WCI -10
ARBOR VITAE    CLEAR      5  -8  53 NW6       30.25S WCI  -5
WOODRUFF       CLEAR      5  -8  53 NW6       30.25S WCI  -5
RHINELANDER    CLEAR      4 -10  52 NW3       30.26R
6HR MIN TEMP:   4; 6HR MAX TEMP:   8; 6HR PCP: TRACE;

EAGLE RIVER    CLEAR      4 -11  48 NW6       30.24R WCI  -6
LAND O LAKES   CLEAR      4  -9  55 NW5       30.25R WCI  -5
PHILLIPS       CLEAR      6  -9  49 NW5       30.28S WCI  -2
TOMAHAWK       CLEAR      7 -10  47 CALM      30.28R
MEDFORD        PTCLDY     6  -8  52 NW6       30.29R WCI  -4
MERRILL        CLEAR      9  -8  45 NW5       30.29R WCI   0
$$

WIZ029-030-035-036-043>047-270100-
CENTRAL WISCONSIN

CITY           SKY/WX    TMP DP  RH WIND       PRES   REMARKS
WAUSAU         CLEAR      9  -9  44 NW7       30.29R WCI  -2
6HR MIN TEMP:   6; 6HR MAX TEMP:  11;

MOSINEE        PTCLDY     9  -8  47 W8        30.31R WCI  -4
MARSHFIELD     CLEAR      6  -8  52 NW8       30.32R WCI  -7
6HR MIN TEMP:   6; 6HR MAX TEMP:   9;

STEVENS POINT  CLEAR      8  -8  48 W3        30.32R
WAUPACA        CLEAR     13  -8  38 NW6       30.33S WCI   4
WAUTOMA        NOT AVBL
WISC RAPIDS    CLEAR      6  -8  52 W9        30.36R WCI  -8
6HR MIN TEMP:   6; 6HR MAX TEMP:  10;

CAMP DOUGLAS   NOT AVBL
$$

WIZ011>013-019>022-031-037>040-048>050-270100-
NORTHEAST WISCONSIN

CITY           SKY/WX    TMP DP  RH WIND       PRES   REMARKS
ANTIGO         CLEAR      6  -9  50 NW8       30.26R WCI  -7
SHAWANO        CLEAR     14  -9  36 CALM      30.31S
OCONTO         CLEAR      8  -2  64 SE3       30.33R
STURGEON BAY   CLEAR      7  -8  51 CALM      30.34R
6HR MIN TEMP:   5; 6HR MAX TEMP:  10;

GREEN BAY      CLEAR     10  -2  58 SW3       30.33R
6HR MIN TEMP:  10; 6HR MAX TEMP:  14;

MANITOWOC      NOT AVBL
APPLETON       PTCLDY     9  -9  43 NW6       30.32R WCI  -1
CLINTONVILLE   CLEAR     12  -8  40 NW7       30.31S WCI   2
OSHKOSH        MOCLDY     8  -4  58 S5        30.33R WCI   0
6HR MIN TEMP:   8; 6HR MAX TEMP:  13;

$$

WIZ032>034-041-042-053>061-270100-
SOUTHWEST WISCONSIN

CITY           SKY/WX    TMP DP  RH WIND       PRES   REMARKS
LA CROSSE      CLEAR      6  -6  57 NW8       30.42R WCI  -7
6HR MIN TEMP:   6; 6HR MAX TEMP:  14;

SPARTA         CLEAR      8  -6  52 NW8       30.39S WCI  -4
VIROQUA        CLEAR      6  -5  60 N7        30.34S WCI  -6
BOSCOBEL       CLEAR     10  -5  50 N5        30.41R WCI   2
6HR MIN TEMP:  10; 6HR MAX TEMP:  15; 6HR PCP: TRACE;

PRAIRIE DU CHI PTCLDY     9  -6  50 NW9       30.41R WCI  -4
PLATTEVILLE    CLEAR      8  -6  52 NW7       30.35R WCI  -3
$$

WIZ056-057-062-063-064-067-068-270100-
SOUTH CENTRAL WISCONSIN

CITY           SKY/WX    TMP DP  RH WIND       PRES   REMARKS
REEDSBURG      CLEAR     10  -6  48 NW5       30.34S WCI   1
BARABOO/DELLS  CLEAR     10  -8  44 N5        30.34R WCI   2
LONE ROCK      NOT AVBL
MINERAL POINT  PTCLDY    12  -6  44 NW6       30.32R WCI   3
MADISON        PTCLDY    10  -6  48 NW6       30.35R WCI   0
6HR MIN TEMP:  10; 6HR MAX TEMP:  14;

MIDDLETON      PTCLDY    10  -6  50 N7        30.34R WCI  -2
WATERTOWN      CLEAR      9  -4  54 N5        30.33R WCI   1
MONROE         PTCLDY    10  -4  52 CALM      30.32R
JANESVILLE     CLEAR     10  -6  48 N7        30.35R WCI   0
$$

WIZ051-052-058>065-066-070>072-270100-
SOUTHEAST WISCONSIN

CITY           SKY/WX    TMP DP  RH WIND       PRES   REMARKS
MILWAUKEE      PTCLDY    11  -6  46 NW9       30.34R WCI  -2
6HR MIN TEMP:  10; 6HR MAX TEMP:  17;

WAUKESHA       CLEAR      7  -8  51 N7        30.34R WCI  -5
MILWAUKEE/TIMM CLEAR      9  -6  52 NW12      30.34R WCI  -6
RACINE         PTCLDY    11  -4  51 NW8       30.35R WCI  -1
6HR MIN TEMP:  10; 6HR MAX TEMP:  15;

BURLINGTON     CLEAR      8  -8  49 N8        30.33R WCI  -5
KENOSHA        CLEAR     10  -5  50 NW7       30.33R WCI  -1
6HR MIN TEMP:  10; 6HR MAX TEMP:  16;

FOND DU LAC    CLEAR      8  -6  52 CALM      30.34R
6HR MIN TEMP:   8; 6HR MAX TEMP:  11;

SHEBOYGAN      CLEAR      6  -5  60 N3        30.34R
6HR MIN TEMP:   6; 6HR MAX TEMP:  12;

WEST BEND      CLEAR      9  -6  52 NW6       30.33R WCI  -1
JUNEAU         PTCLDY     9  -5  53 CALM      30.34R
$$

LSZ147-162-270100-
LAKE SUPERIOR

STATION/POSITION TIME  TEMP    WIND        PRES    WAVE
                       AIR SEA DIR/SP/G            HT/PER
                 (UTC) (F)     (DEG/KT/KT) (MB)    (FT/S)
DEVILS ISLAND    2300    9     230/ 16/ 19 1029.8F
PORT WING        2340   10     240/  6/ 11 1029.1S
SAXON HARBOR     2300    8     310/  6/ 10 1028.4S
$$

LMZ867-665-643>646-270100-
LAKE MICHIGAN

STATION/POSITION TIME  TEMP    WIND        PRES    WAVE
                       AIR SEA DIR/SP/G            HT/PER
                 (UTC) (F)     (DEG/KT/KT) (MB)    (FT/S)
NORTHPORT PIER   2323    9     280/  2/  7 1026.4S
SISTER BAY       2258   16        CALM       N/A
KEWAUNEE LAKESHO 2300   11      10/  4/  7 1026.0R
SHEBOYGAN LAKESH 2300   10     340/ 11/ 12 1029.1R
PORT WASHINGTON  2300   13     320/  4/  6 1028.1R
MILWAUKEE LAKESH 2300   13     330/  8/ 10   N/A
KENOSHA   LAKESH 2300   14     330/ 10/ 13 1026.4R
$$

TC  - TEMPERATURE IN CELSIUS
VSB - VISIBILITY IN STATUTE MILES
WCI - WIND CHILL INDEX
HX  - HEAT INDEX



USA.gov is the U.S. government's official web portal to all federal, state and local government web resources and services.